K7OLI-13 Weather Reports


Display with metric or nautical units.
time (UTC)temp
F
wind
direction
speed
MPH
gust
MPH
rain 1hr
in
rain 24hr
in
rain mn
in
humidity
%
barometer
mb
20260509151037 56 12 4.0 5.0 0.00 0.00 0.00 84 1018.1
20260509150027 56 293 2.0 3.0 0.00 0.00 0.00 85 1018.2
20260509145055 55 333 2.0 4.0 0.00 0.00 0.00 86 1018.2
20260509144024 54 344 2.0 3.0 0.00 0.00 0.00 88 1018.1
20260509143032 54 18 2.0 4.0 0.00 0.00 0.00 89 1018.2
20260509142025 53 25 4.0 4.0 0.00 0.00 0.00 89 1018.1
20260509141029 52 334 2.0 3.0 0.00 0.00 0.00 92 1017.3
20260509140019 52 43 1.0 3.0 0.00 0.00 0.00 93 1017.1
20260509135027 49 0.0 0.0 0.00 0.00 0.00 99 1017.1
20260509134049 48 0.0 0.0 0.00 0.00 0.00 99 1017.1
20260509133019 47 0.0 0.0 0.00 0.00 0.00 99 1017.1
20260509132032 45 0.0 0.0 0.00 0.00 0.00 99 1017.1
20260509131024 45 0.0 0.0 0.00 0.00 0.00 99 1017.1
20260509130032 45 0.0 0.0 0.00 0.00 0.00 99 1017.1
20260509125019 45 0.0 0.0 0.00 0.00 0.00 99 1017.1
20260509124030 45 0.0 0.0 0.00 0.00 0.00 99 1017.1
20260509123020 46 0.0 0.0 0.00 0.00 0.00 99 1017.1
20260509122025 46 0.0 0.0 0.00 0.00 0.00 99 1017.1
20260509121033 46 0.0 0.0 0.00 0.00 0.00 99 1017.9
20260509120044 47 90 0.0 1.0 0.00 0.00 0.00 99 1018.1
20260509115035 47 0.0 0.0 0.00 0.00 0.00 99 1017.1
20260509114020 47 0.0 0.0 0.00 0.00 0.00 99 1017.1
20260509113021 48 0.0 0.0 0.00 0.00 0.00 99 1017.1
20260509112036 48 0.0 0.0 0.00 0.00 0.00 99 1017.1
20260509111025 48 0.0 0.0 0.00 0.00 0.00 99 1017.9
20260509110033 48 0.0 2.0 0.00 0.00 0.00 99 1018.1
20260509105023 48 230 1.0 2.0 0.00 0.00 0.00 99 1018.1
20260509104032 48 231 2.0 2.0 0.00 0.00 0.00 99 1018.1
20260509103022 48 248 0.0 1.0 0.00 0.00 0.00 99 1018.1
20260509102028 48 248 0.0 2.0 0.00 0.00 0.00 99 1018.1
20260509101037 49 260 1.0 3.0 0.00 0.00 0.00 99 1018.1
20260509100026 49 0.0 0.0 0.00 0.00 0.00 99 1018.1
20260509095034 49 248 1.0 2.0 0.00 0.00 0.00 99 1018.1
20260509094023 48 248 1.0 3.0 0.00 0.00 0.00 98 1018.1
20260509093023 48 0.0 0.0 0.00 0.00 0.00 98 1018.1
20260509092021 49 0.0 0.0 0.00 0.00 0.00 98 1018.1
20260509091028 49 270 0.0 1.0 0.00 0.00 0.00 97 1018.1
20260509090037 49 270 0.0 2.0 0.00 0.00 0.00 97 1018.1
20260509085026 49 0.0 0.0 0.00 0.00 0.00 96 1018.1
20260509084034 50 0.0 1.0 0.00 0.00 0.00 95 1018.1
20260509083025 50 270 1.0 2.0 0.00 0.00 0.00 94 1018.1
20260509082032 51 0 0.0 3.0 0.00 0.00 0.00 94 1018.1
20260509081021 51 0.0 0.0 0.00 0.00 0.00 93 1018.1
20260509080029 52 0.0 0.0 0.00 0.00 0.00 92 1018.1
20260509075040 52 0.0 0.0 0.00 0.00 0.00 92 1018.1
20260509074027 52 0.0 0.0 0.00 0.00 0.00 91 1018.1
20260509073025 53 0.0 0.0 0.00 0.00 0.00 90 1018.1
20260509072025 53 0.0 0.0 0.00 0.00 0.00 88 1018.1
20260509071033 54 221 2.0 3.0 0.00 0.00 0.00 88 1018.1
20260509070045 54 237 2.0 3.0 0.00 0.00 0.00 86 1018.1
20260509065030 55 223 3.0 4.0 0.00 0.00 0.00 86 1018.1
20260509064019 55 190 2.0 3.0 0.00 0.00 0.00 85 1018.1
20260509063027 55 223 3.0 5.0 0.00 0.00 0.00 84 1018.1
20260509062113 56 213 4.0 5.0 0.00 0.00 0.00 84 1018.1
20260509061024 56 201 4.0 5.0 0.00 0.00 0.00 83 1018.1
20260509060033 56 201 4.0 6.0 0.00 0.00 0.00 82 1018.1
20260509055041 57 210 5.0 7.0 0.00 0.00 0.00 82 1018.1
20260509054029 57 209 6.0 8.0 0.00 0.00 0.00 81 1018.1
20260509053019 57 210 6.0 10.0 0.00 0.00 0.00 80 1018.1
20260509052027 58 208 6.0 8.0 0.00 0.00 0.00 80 1018.1
20260509051054 58 193 5.0 7.0 0.00 0.00 0.00 79 1018.1
20260509050025 59 191 6.0 7.0 0.00 0.00 0.00 78 1018.1
20260509045050 59 231 4.0 6.0 0.00 0.00 0.00 78 1018.1
20260509044040 59 212 3.0 5.0 0.00 0.00 0.00 77 1018.1
20260509043029 60 240 4.0 6.0 0.00 0.00 0.00 76 1018.1
20260509042037 60 224 4.0 5.0 0.00 0.00 0.00 75 1018.1
20260509041026 61 220 4.0 7.0 0.00 0.00 0.00 74 1018.1
20260509040034 61 235 4.0 6.0 0.00 0.00 0.00 73 1018.1
20260509035023 62 238 4.0 6.0 0.00 0.00 0.00 72 1018.1
20260509034032 62 229 5.0 7.0 0.00 0.00 0.00 71 1018.1
20260509033020 63 222 6.0 9.0 0.00 0.00 0.00 69 1018.1
20260509032019 64 240 7.0 11.0 0.00 0.00 0.00 68 1018.1
20260509031036 64 209 6.0 7.0 0.00 0.00 0.00 66 1017.4
20260509030026 66 221 7.0 11.0 0.00 0.00 0.00 64 1017.1
20260509025033 67 221 6.0 8.0 0.00 0.00 0.00 61 1017.1
20260509024043 67 231 6.0 8.0 0.00 0.00 0.00 60 1017.1
20260509023031 68 236 5.0 7.0 0.00 0.00 0.00 57 1017.2
20260509022040 68 232 6.0 8.0 0.00 0.00 0.00 57 1017.2
20260509021028 69 210 4.0 7.0 0.00 0.00 0.00 56 1017.1
20260509020036 68 210 5.0 7.0 0.00 0.00 0.00 56 1017.1
20260509015045 69 222 3.0 4.0 0.00 0.00 0.00 55 1017.1
20260509014033 69 12 1.0 4.0 0.00 0.00 0.00 54 1017.1
20260509013023 70 219 5.0 7.0 0.00 0.00 0.00 54 1017.1
20260509012021 69 218 7.0 8.0 0.00 0.00 0.00 54 1018.1
20260509011019 70 230 5.0 9.0 0.00 0.00 0.00 53 1018.1
20260509010033 69 136 3.0 5.0 0.00 0.00 0.00 54 1018.1
20260509005035 69 184 3.0 5.0 0.00 0.00 0.00 54 1018.1
20260509004025 69 224 6.0 9.0 0.00 0.00 0.00 54 1018.1
20260509003033 69 203 6.0 8.0 0.00 0.00 0.00 54 1018.1
20260509002024 70 227 6.0 9.0 0.00 0.00 0.00 53 1018.1
20260509001033 68 180 4.0 8.0 0.00 0.00 0.00 54 1018.1
20260509000019 69 238 8.0 11.0 0.00 0.00 0.00 53 1018.1
20260508235027 69 222 7.0 10.0 0.00 0.00 0.00 53 1018.1
20260508234055 69 231 6.0 8.0 0.00 0.00 0.00 52 1018.1
20260508233027 70 185 5.0 9.0 0.00 0.00 0.00 51 1018.1
20260508232025 69 248 5.0 7.0 0.00 0.00 0.00 52 1018.1
20260508231041 70 223 8.0 12.0 0.00 0.00 0.00 51 1018.1
20260508230029 70 199 5.0 7.0 0.00 0.00 0.00 50 1018.1
20260508225019 68 115 4.0 5.0 0.00 0.00 0.00 50 1018.1
20260508224027 69 179 4.0 7.0 0.00 0.00 0.00 50 1018.1
20260508223055 69 210 3.0 5.0 0.00 0.00 0.00 50 1018.1
20260508222025 69 140 6.0 7.0 0.00 0.00 0.00 49 1018.1
20260508221032 69 190 4.0 7.0 0.00 0.00 0.00 48 1018.1
20260508220025 68 201 6.0 8.0 0.00 0.00 0.00 49 1018.1
20260508215029 68 219 3.0 5.0 0.00 0.00 0.00 49 1018.1
20260508214037 68 198 6.0 9.0 0.00 0.00 0.00 52 1018.1
20260508213026 66 171 6.0 9.0 0.00 0.00 0.00 51 1018.1
20260508212025 68 218 6.0 9.0 0.00 0.00 0.00 50 1018.1
20260508211025 67 182 5.0 7.0 0.00 0.00 0.00 50 1018.1
20260508210033 66 208 4.0 7.0 0.00 0.00 0.00 51 1018.1
20260508205020 66 155 5.0 7.0 0.00 0.00 0.00 51 1018.1
20260508204027 66 168 5.0 9.0 0.00 0.00 0.00 52 1018.9
20260508203036 66 191 5.0 9.0 0.00 0.00 0.00 52 1019.1
20260508202027 65 93 5.0 7.0 0.00 0.00 0.00 53 1019.1
20260508201053 65 94 5.0 8.0 0.00 0.00 0.00 54 1019.1
20260508200025 66 192 5.0 8.0 0.00 0.00 0.00 53 1019.1
20260508195030 66 155 4.0 8.0 0.00 0.00 0.00 52 1019.1
20260508194020 65 152 4.0 7.0 0.00 0.00 0.00 54 1019.1
20260508193027 64 189 6.0 10.0 0.00 0.00 0.00 55 1019.1
20260508192027 62 139 4.0 7.0 0.00 0.00 0.00 57 1019.1
20260508191025 64 131 6.0 7.0 0.00 0.00 0.00 56 1019.1
20260508190033 62 205 6.0 7.0 0.00 0.00 0.00 57 1019.1
20260508185041 61 198 5.0 8.0 0.00 0.00 0.00 61 1019.1
20260508184030 60 174 4.0 6.0 0.00 0.00 0.00 61 1019.1
20260508183019 60 185 7.0 10.0 0.00 0.00 0.00 62 1019.1
20260508182028 60 279 3.0 7.0 0.00 0.00 0.00 61 1019.1
20260508181035 61 134 5.0 7.0 0.00 0.00 0.00 61 1019.1
20260508180025 59 174 6.0 9.0 0.00 0.00 0.00 65 1019.1
20260508175031 59 164 8.0 12.0 0.00 0.00 0.00 64 1019.1
20260508174041 59 156 6.0 10.0 0.00 0.00 0.00 64 1019.1
20260508173029 56 183 5.0 8.0 0.00 0.00 0.00 70 1019.1
20260508172019 56 185 8.0 10.0 0.00 0.00 0.00 70 1019.1
20260508171019 56 182 6.0 8.0 0.00 0.00 0.00 70 1019.1
20260508170034 55 175 7.0 8.0 0.00 0.00 0.00 71 1019.1
20260508165023 55 173 7.0 9.0 0.00 0.00 0.00 72 1018.1
20260508164031 56 151 5.0 8.0 0.00 0.00 0.00 72 1018.1
20260508163020 56 131 5.0 9.0 0.00 0.00 0.00 71 1018.1
20260508162033 55 150 7.0 8.0 0.00 0.00 0.00 73 1018.1
20260508161021 55 130 6.0 8.0 0.00 0.00 0.00 74 1018.1
20260508160025 55 124 7.0 8.0 0.00 0.00 0.00 75 1018.1
20260508155053 54 116 6.0 9.0 0.00 0.00 0.00 77 1018.1
20260508154022 54 136 6.0 8.0 0.00 0.00 0.00 78 1018.1
20260508153031 54 132 6.0 8.0 0.00 0.00 0.00 78 1018.1
20260508152020 53 99 6.0 10.0 0.00 0.00 0.00 81 1018.1